Погода в Фатневе

Россия / Орловская область     53°28′17″N   36°14′05″E
темп.,
°C
ветер,
м/с
пор.,
м/с
влажн.,
%
обл.,
%
осадки,
мм/ч
давл.,
гПа
погр.,
м
13 июня, вс
вс1300:00+14юз229017 0.0 100812
03:00+12юз22920 0.0 100710
06:00+14ююз22930 0.0 100786
09:00+18ю2381100 0.0 1007518
12:00+21ю34654 0.0 10071297
15:00+22ююз566654 0.3 10071319
18:00+21ююз4782100 1.0 1007771
21:00+17ю3693100 3.6 1008106
14 июня, пн
пн1400:00+15ю339481 0.4 100960
03:00+14ю229457 0.4 101138
06:00+15ю24939 0.0 1012120
09:00+19ю347946 0.0 1014498
12:00+23ююз236610 0.0 10141177
15:00+24ю116218 0.9 10141328
18:00+24вюв116629 1.2 1014950
21:00+18юв118448 4.6 101511
15 июня, вт
вт1500:00+16ююв11864 0.1 101511
03:00+15с00880 0.1 101511
06:00+17с11881 0.0 101536
09:00+21сз11785 0.0 1014416
12:00+24ссв116911 0.5 10131021
15:00+25с116119 0.9 10121394
18:00+24ссз116888 0.9 10111064
21:00+19ссз228429 2.6 101113
16 июня, ср
ср1600:00+17ссз3493100 2.5 101161
03:00+15с349467 2.5 101069
06:00+16ссз369354 0.0 1011189
09:00+20с35784 0.0 1012429
12:00+22с56665 0.0 10131065
15:00+23с56625 0.0 10141363
18:00+20с58825 0.4 1015561
21:00+17с38900 0.5 1017167
17 июня, чт
чт1700:00+13ссв411875 0.0 1018189
03:00+12ссв39891 0.0 1020162
06:00+12ссв38860 0.0 1022205
09:00+17св58680 0.0 1023471
12:00+20св57580 0.0 10231242
15:00+21св57580 0.0 10241537
18:00+19св58680 0.0 1024571
21:00+14всв33840 0.0 102536